Location: Home
(51.5204°N, 2.5456°W)
Time: 08:12:00
(UTC+00:00)

ISS - Visible Passes

Search period start: 18 February 2019 00:00
Search period end: 28 February 2019 00:00
Orbit: 403 x 411 km, 51.6° (Epoch: 18 February)

Date Brightness Start Highest point End Pass type
(mag) Time Alt. Az. Time Alt. Az. Time Alt. Az.
24 Feb -1.1 06:17:08 10° S 06:19:29 18° SE 06:21:50 10° E visible
25 Feb -0.9 05:26:53 10° SSE 05:28:12 12° SE 05:29:31 10° ESE visible
26 Feb -2.2 06:09:44 10° SW 06:12:42 32° SSE 06:15:40 10° E visible
27 Feb -1.7 05:19:15 13° SSW 05:21:18 22° SE 05:23:55 10° E visible
